$Date,$Time,DM0201B,DM0203B,DM0205B,DM0207B,DM0209B
04/10/99,00:00:01,127,296,-25,0,0
04/10/99,00:05:01,118,296,-25,62,970
04/10/99,00:10:01,93,296,-25,59,970
04/10/99,00:15:01,112,296,-25,59,970
04/10/99,00:20:01,98,301,-25,57,970
04/10/99,00:25:01,99,291,-25,57,970
04/10/99,00:30:01,89,303,-25,44,970
04/10/99,00:35:01,75,298,-25,33,970
04/10/99,00:40:01,85,298,-25,32,970
04/10/99,00:45:01,100,287,-25,28,970
04/10/99,00:50:01,86,301,-25,26,970
04/10/99,00:55:01,76,290,-25,24,970
04/10/99,01:00:01,72,303,-25,24,970
04/10/99,01:05:01,76,294,-25,28,970
04/10/99,01:10:01,79,294,-25,26,970
04/10/99,01:15:01,83,305,-25,24,970
04/10/99,01:20:01,87,294,-25,24,970
04/10/99,01:25:01,90,294,-25,24,970
04/10/99,01:30:01,76,301,-25,24,970
04/10/99,01:35:01,64,301,-25,24,970
04/10/99,01:40:01,87,301,-25,24,970
04/10/99,01:45:01,99,301,-25,24,970
04/10/99,01:50:01,102,291,-25,26,970
04/10/99,01:55:01,99,291,-25,28,970
04/10/99,02:00:01,101,304,-25,30,970
04/10/99,02:05:01,87,294,-25,32,970
04/10/99,02:10:01,76,305,-25,32,970
04/10/99,02:15:01,83,294,-25,32,970
04/10/99,02:20:01,76,311,-25,32,970
04/10/99,02:25:01,86,305,-25,40,970
04/10/99,02:30:01,88,305,-25,42,970
04/10/99,02:35:01,98,305,-25,46,970
04/10/99,02:40:01,96,295,-23,44,970
04/10/99,02:45:01,107,295,-23,42,970
04/10/99,02:50:01,103,295,-23,36,970
04/10/99,02:55:01,92,295,-23,40,970
04/10/99,03:00:01,105,294,-23,38,970
04/10/99,03:05:01,92,304,-23,36,970
04/10/99,03:10:01,72,304,-23,32,970
04/10/99,03:15:01,109,296,-23,24,970
04/10/99,03:20:01,80,315,-23,18,970
04/10/99,03:25:01,83,315,-23,18,970
04/10/99,03:30:01,66,304,-23,16,970
04/10/99,03:35:01,80,288,-25,16,970
04/10/99,03:40:01,99,300,-25,16,970
04/10/99,03:45:01,76,300,-25,18,970
04/10/99,03:50:01,68,304,-25,18,970
04/10/99,03:55:01,75,304,-25,14,970
04/10/99,04:00:01,76,294,-25,14,970
04/10/99,04:05:01,62,294,-25,12,970
04/10/99,04:10:01,80,294,-25,12,970
04/10/99,04:15:01,88,292,-25,10,970
04/10/99,04:20:01,54,299,-25,8,970
04/10/99,04:25:01,50,307,-25,6,970
04/10/99,04:30:01,72,300,-25,6,970
04/10/99,04:35:01,49,317,-25,4,970
04/10/99,04:40:01,88,307,-25,4,970
04/10/99,04:45:01,67,303,-25,4,970
04/10/99,04:50:01,60,301,-25,2,970
04/10/99,04:55:01,64,320,-25,2,970
04/10/99,05:00:01,50,308,-25,2,970
04/10/99,05:05:01,51,324,-25,2,970
04/10/99,05:10:01,79,306,-25,2,970
04/10/99,05:15:01,71,301,-25,2,970
04/10/99,05:20:01,56,312,-25,0,970
04/10/99,05:25:01,65,324,-25,0,970
04/10/99,05:30:01,79,313,-25,0,970
04/10/99,05:35:01,43,325,-25,0,970
04/10/99,05:40:01,47,320,-25,0,970
04/10/99,05:45:01,65,330,-25,0,970
04/10/99,05:50:01,84,314,-25,0,970
04/10/99,05:55:01,59,327,-25,0,970
04/10/99,06:00:01,62,321,-25,0,970
04/10/99,06:05:01,74,321,-25,0,970
04/10/99,06:10:01,87,321,-25,0,970
04/10/99,06:15:01,88,308,-25,0,970
04/10/99,06:20:01,73,326,-25,0,970
04/10/99,06:25:01,89,330,-25,0,970
04/10/99,06:30:01,99,317,-25,0,970
04/10/99,06:35:01,85,315,-25,0,970
04/10/99,06:40:01,102,320,-25,0,970
04/10/99,06:45:01,96,316,-25,0,970
04/10/99,06:50:01,102,316,-25,0,970
04/10/99,06:55:01,86,316,-25,0,970
04/10/99,07:00:01,100,306,-25,0,970
04/10/99,07:05:01,64,308,-25,0,970
04/10/99,07:10:01,76,308,-25,0,970
04/10/99,07:15:01,97,308,-25,0,970
04/10/99,07:20:01,76,308,-25,0,970
04/10/99,07:25:01,74,297,-25,0,970
04/10/99,07:30:01,97,293,-25,0,970
04/10/99,07:35:01,55,299,-25,0,970
04/10/99,07:40:01,70,299,-25,0,970
04/10/99,07:45:01,66,299,-25,0,970
04/10/99,07:50:01,81,289,-25,0,970
04/10/99,07:55:01,74,289,-25,0,970
04/10/99,08:00:01,75,301,-25,0,970
04/10/99,08:05:01,69,301,-25,0,970
04/10/99,08:10:01,77,301,-25,0,970
04/10/99,08:15:01,82,301,-25,0,970
04/10/99,08:20:01,58,302,-25,0,970
04/10/99,08:25:01,83,302,-25,0,970
04/10/99,08:30:01,84,305,-25,0,970
04/10/99,08:35:01,81,305,-25,0,970
04/10/99,08:40:01,78,305,-25,0,970
04/10/99,08:45:01,81,316,-25,0,970
04/10/99,08:50:01,82,304,-25,0,970
04/10/99,08:55:01,66,303,-25,0,970
04/10/99,09:00:01,52,318,-25,0,970
04/10/99,09:05:01,79,317,-25,0,970
04/10/99,09:10:01,65,316,-25,0,970
04/10/99,09:15:01,83,307,-25,0,970
04/10/99,09:20:01,58,304,-25,0,970
04/10/99,09:25:01,87,302,-25,0,970
04/10/99,09:30:01,68,302,-25,0,970
04/10/99,09:35:01,77,303,-25,0,970
04/10/99,09:40:01,46,284,-25,0,970
04/10/99,09:45:01,51,300,-25,0,970
04/10/99,09:50:01,73,300,-25,0,970
04/10/99,09:55:01,53,299,-25,0,970
04/10/99,10:00:01,58,299,-25,0,970
04/10/99,10:05:01,59,299,-25,0,970
04/10/99,10:10:01,59,299,-25,0,970
04/10/99,10:15:01,77,299,-25,0,970
04/10/99,10:20:01,58,296,-25,0,970
04/10/99,10:25:01,110,296,-25,0,970
04/10/99,10:30:01,74,299,-25,0,970
04/10/99,10:35:01,84,299,-25,0,970
04/10/99,10:40:01,80,299,-25,0,970
04/10/99,10:45:01,100,296,-25,0,970
04/10/99,10:50:01,82,283,-25,0,970
04/10/99,10:55:01,99,293,-25,0,970
04/10/99,11:00:01,98,293,-25,0,970
04/10/99,11:05:01,107,293,-25,0,970
04/10/99,11:10:01,104,293,-25,0,970
04/10/99,11:15:01,104,293,-25,0,970
04/10/99,11:20:01,94,293,-25,0,970
04/10/99,11:25:01,81,282,-25,0,970
04/10/99,11:30:01,81,282,-25,0,970
04/10/99,11:35:01,93,282,-25,0,970
04/10/99,11:40:01,93,282,-25,0,970
04/10/99,11:45:01,87,282,-25,0,970
04/10/99,11:50:01,75,269,-25,0,968
04/10/99,11:55:01,80,271,-25,0,968
04/10/99,12:00:01,81,271,-25,0,968
04/10/99,12:05:01,66,271,-25,0,968
04/10/99,12:10:01,64,271,-25,0,968
04/10/99,12:15:01,89,284,-25,0,968
04/10/99,12:20:01,104,284,-25,0,968
04/10/99,12:25:01,93,284,-25,0,968
04/10/99,12:30:01,110,284,-25,0,968
04/10/99,12:35:01,81,284,-25,0,968
04/10/99,12:40:01,100,284,-25,0,968
04/10/99,12:45:01,90,284,-25,0,968
04/10/99,12:50:01,91,284,-25,0,968
04/10/99,12:55:01,83,284,-25,0,968
04/10/99,13:00:01,83,284,-25,0,968
04/10/99,13:05:01,82,284,-25,0,968
04/10/99,13:10:01,81,284,-25,0,968
04/10/99,13:15:01,91,295,-25,0,968
04/10/99,13:20:01,91,295,-25,0,968
04/10/99,13:25:01,91,295,-25,0,968
04/10/99,13:30:01,91,295,-25,0,968
04/10/99,13:35:01,81,285,-25,0,968
04/10/99,13:40:01,78,286,-25,0,968
04/10/99,13:45:01,74,286,-25,0,968
04/10/99,13:50:01,85,286,-25,0,968
04/10/99,13:55:01,85,286,-25,0,968
04/10/99,14:00:01,86,296,-25,0,968
04/10/99,14:05:01,81,296,-25,0,968
04/10/99,14:10:01,86,296,-25,0,968
04/10/99,14:15:01,84,296,-25,0,968
04/10/99,14:20:01,96,296,-25,0,968
04/10/99,14:25:01,95,286,-25,0,968
04/10/99,14:30:01,105,286,-25,0,968
04/10/99,14:35:01,73,286,-25,0,968
04/10/99,14:40:01,73,286,-25,0,968
04/10/99,14:45:01,72,286,-25,0,968
04/10/99,14:50:01,97,286,-25,0,968
04/10/99,14:55:01,90,286,-25,0,968
04/10/99,15:00:01,87,286,-25,0,968
04/10/99,15:05:01,93,286,-25,0,968
04/10/99,15:10:01,87,288,-25,0,968
04/10/99,15:15:01,67,288,-25,0,968
04/10/99,15:20:01,87,288,-25,0,968
04/10/99,15:25:01,94,292,-25,0,968
04/10/99,15:30:01,78,282,-25,0,968
04/10/99,15:35:01,100,282,-25,0,968
04/10/99,15:40:01,88,282,-25,0,968
04/10/99,15:45:01,103,282,-25,0,968
04/10/99,15:50:01,114,282,-25,0,968
04/10/99,15:55:01,91,282,-25,0,968
04/10/99,16:00:01,90,282,-25,0,968
04/10/99,16:05:01,89,282,-25,0,968
04/10/99,16:10:01,78,282,-25,0,968
04/10/99,16:15:01,74,269,-25,0,968
04/10/99,16:20:01,79,280,-25,0,968
04/10/99,16:25:01,69,280,-25,0,968
04/10/99,16:30:01,72,280,-25,0,968
04/10/99,16:35:01,72,280,-25,0,968
04/10/99,16:40:01,72,280,-25,0,968
04/10/99,16:45:01,61,280,-25,0,968
04/10/99,16:50:01,61,280,-25,0,968
04/10/99,16:55:01,49,280,-25,0,968
04/10/99,17:00:01,49,280,-25,0,968
04/10/99,17:05:01,49,280,-25,0,968
04/10/99,17:10:01,49,280,-25,0,968
04/10/99,17:15:01,49,280,-25,0,968
04/10/99,17:20:01,49,291,-25,0,968
04/10/99,17:25:01,39,301,-25,0,968
04/10/99,17:30:01,39,301,-25,0,968
04/10/99,17:35:01,39,311,-25,0,968
04/10/99,17:40:01,39,311,-25,0,968
04/10/99,17:45:01,39,311,-25,0,968
04/10/99,17:50:01,39,311,-25,0,968
04/10/99,17:55:01,39,311,-25,0,968
04/10/99,18:00:01,39,286,-25,0,968
04/10/99,18:05:01,39,286,-25,0,968
04/10/99,18:10:01,29,286,-25,0,968
04/10/99,18:15:01,29,317,-25,0,968
04/10/99,18:20:01,29,317,-25,0,968
04/10/99,18:25:01,29,317,-25,0,968
04/10/99,18:30:01,19,317,-25,0,968
04/10/99,18:35:01,29,317,-25,0,968
04/10/99,18:40:01,29,317,-25,0,968
04/10/99,18:45:01,39,317,-25,0,968
04/10/99,18:50:01,39,328,-25,0,968
04/10/99,18:55:01,27,328,-25,0,968
04/10/99,19:00:01,37,328,-25,0,968
04/10/99,19:05:01,37,328,-25,0,968
04/10/99,19:10:01,37,328,-25,0,968
04/10/99,19:15:01,37,328,-25,0,968
04/10/99,19:20:01,37,328,-25,0,968
04/10/99,19:25:01,37,328,-25,0,968
04/10/99,19:30:01,37,328,-25,0,968
04/10/99,19:35:01,37,328,-25,0,968
04/10/99,19:40:01,37,339,-25,0,968
04/10/99,19:45:01,37,339,-25,0,968
04/10/99,19:50:01,27,339,-25,0,968
04/10/99,19:55:01,27,339,-25,0,968
04/10/99,20:00:01,27,339,-25,0,968
04/10/99,20:05:01,27,339,-25,0,968
04/10/99,20:10:01,27,339,-25,0,968
04/10/99,20:15:01,27,339,-25,0,968
04/10/99,20:20:01,27,339,-25,0,968
04/10/99,20:25:01,37,339,-25,0,968
04/10/99,20:30:01,37,339,-25,0,968
04/10/99,20:35:01,37,339,-25,0,968
04/10/99,20:40:01,37,339,-25,0,968
04/10/99,20:45:01,27,339,-25,0,968
04/10/99,20:50:01,27,339,-25,0,968
04/10/99,20:55:01,38,339,-25,0,968
04/10/99,21:00:01,38,339,-25,0,968
04/10/99,21:05:01,28,339,-25,0,968
04/10/99,21:10:01,18,339,-25,0,968
04/10/99,21:15:01,18,339,-25,2,968
04/10/99,21:20:01,8,339,-25,2,968
04/10/99,21:25:01,8,339,-25,2,968
04/10/99,21:30:01,8,339,-25,2,968
04/10/99,21:35:01,8,339,-25,2,968
04/10/99,21:40:01,8,339,-25,2,968
04/10/99,21:45:01,8,339,-25,4,968
04/10/99,21:50:01,8,339,-25,4,968
04/10/99,21:55:01,8,339,-25,6,968
04/10/99,22:00:01,8,339,-25,8,968
04/10/99,22:05:01,8,339,-25,8,968
04/10/99,22:10:01,8,339,-25,10,968
04/10/99,22:15:01,8,339,-25,10,968
04/10/99,22:20:01,8,339,-25,10,968
04/10/99,22:25:01,8,339,-25,14,968
04/10/99,22:30:01,8,339,-25,14,968
04/10/99,22:35:01,8,339,-25,14,968
04/10/99,22:40:01,8,339,-25,14,968
04/10/99,22:45:01,8,339,-25,16,968
04/10/99,22:50:01,8,339,-25,16,968
04/10/99,22:55:01,8,339,-25,18,968
04/10/99,23:00:01,8,339,-25,20,968
04/10/99,23:05:01,8,339,-25,20,968
04/10/99,23:10:01,8,339,-25,20,968
04/10/99,23:15:01,8,339,-25,22,968
04/10/99,23:20:01,8,339,-25,22,968
04/10/99,23:25:01,8,339,-25,22,968
04/10/99,23:30:01,8,339,-25,24,968
04/10/99,23:35:01,8,339,-25,24,968
04/10/99,23:40:01,8,339,-25,26,968
04/10/99,23:45:01,8,339,-25,26,968
04/10/99,23:50:01,8,339,-25,26,968
04/10/99,23:55:01,8,349,-25,26,968
04/11/99,00:00:01,8,349,-25,28,968
